Regional Weather Roundup
Issued by NWS Charleston, SC

Current Version | Previous Version | Graphics & Text | Print | Product List | Glossary On
Versions: 1 2 3 4 5 6 7 8 9 10 11 12 13 14 15 16 17 18 19 20 21 22 23 24 25 26 27 28 29 30 31 32 33 34 35 36 37 38 39 40 41 42 43 44 45 46 47 48 49 50
000 ASUS42 KCHS 220212 RWRCHS REGIONAL WEATHER ROUNDUP NATIONAL WEATHER SERVICE CHARLESTON SC 900 PM EST SAT JAN 21 2017 NOTE: "FAIR" INDICATES FEW OR NO CLOUDS BELOW 12,000 FEET WITH NO SIGNIFICANT WEATHER AND/OR OBSTRUCTIONS TO VISIBILITY. NOT ALL STATIONS ARE QUALITY CONTROLLED. USE DATA WITH CAUTION... ESPECIALLY DEWPOINT OBSERVATIONS. SCZ027-030-031-034>040-042>050-220300- ...SOUTHEAST SOUTH CAROLINA... CITY SKY/WX TMP DP RH WIND PRES REMARKS N CHARLESTON CLOUDY 61 58 90 S13 29.69F WATERFRONT PRK N/A 60 59 96 SE16 29.66F MOUNT PLEASANT FAIR 61 59 94 S13 29.69F JOHNS ISLAND FAIR 61 59 94 S10 29.71F PINOPOLIS N/A 61 61 100 W21 29.62F MONCKS CORNER FAIR 59 57 94 CALM 29.71R SUMMERVILLE FAIR N/A N/A N/A SW3 29.72R BEAUFORT MCAS CLOUDY 61 59 93 S9 29.73R BEAUFORT ARPT FAIR 61 59 94 S8 29.72R HILTON HEAD IS CLOUDY 61 61 100 S9G16 29.74R WALTERBORO CLOUDY 59 59 100 SW5 29.72S ALLENDALE FAIR 61 59 94 VRB3 29.70R ...SOUTHERN MIDLANDS AND PEE DEE... CITY SKY/WX TMP DP RH WIND PRES REMARKS GEORGETOWN LGT RAIN 59 59 100 S12G17 29.71F KINGSTREE FAIR 63 59 88 S5 29.69S ORANGEBURG CLOUDY 60 58 92 SW9 29.70R BARNWELL FAIR 61 59 94 SW3 29.71R AIKEN CLOUDY 59 57 94 SW10 29.72S MANNING FAIR 61 57 88 S6 29.69S COLUMBIA CLOUDY 63 58 83 SW13 29.68R SUMTER CLOUDY 62 58 87 S13 29.65R FLORENCE CLOUDY 64 62 93 S8 29.66R MYRTLE BEACH LGT RAIN 61 55 82 SW23G31 29.71F N MYRTLE BEACH LGT RAIN 60 59 96 S17G23 29.70F $$ GAZ063-065-086>088-099>101-113>116-118-119-134>141-150-220300- ...SOUTHEAST GEORGIA... CITY SKY/WX TMP DP RH WIND PRES REMARKS SAVANNAH ARPT CLOUDY 61 58 90 S9 29.74R HUNTER AAF CLOUDY 61 61 100 S5 29.72R FORT STEWART CLOUDY 61 59 93 S3 29.72R STATESBORO MOCLDY 61 32 33 S7 29.73R SYLVANIA CLOUDY N/A N/A N/A S3 29.73R CLAXTON FAIR N/A N/A N/A S3 29.74R ...CSRA...CENTRAL AND FAR SOUTHEAST GEORGIA... CITY SKY/WX TMP DP RH WIND PRES REMARKS THOMSON CLOUDY 63 62 94 W5 29.74S AUGUSTA-BUSH CLOUDY 63 58 83 SW9 29.70R AUGUSTA-DANIEL CLOUDY 63 57 81 SW7 29.70R SWAINSBORO FAIR 59 59 100 CALM 29.74R VIDALIA CLOUDY 61 61 100 SW7 29.73S EASTMAN CLOUDY 61 61 100 S6 29.74S HAZLEHURST FAIR 62 62 100 SW8 29.72S ALMA CLOUDY 62 61 96 S9 29.74F WAYCROSS CLOUDY 65 65 100 S9 29.77F JESUP MOCLDY 63 61 94 S8 29.75F BAXLEY FAIR 63 63 100 S8 29.72F BRUNSWICK LGT RAIN 64 63 94 S13 29.77F SAINT SIMONS LGT RAIN 63 61 93 S12 29.78F $$ SCZ027-028-034-036>038-045-046-048>050-GAZ119-141-220300- ...LAKE AND SUPPLEMENTAL COASTAL OBSERVATIONS... STATION/POSITION TIME TEMP WIND PRES WAVE SWELL AIR SEA DIR/SP/G HT/PER HT/PER/DIR (UTC) (F) (DEG/KT/KT) (MB) (FT/S) (FT/S/D) WINYAH BAY NOT AVBL LAKE MURRAY 0120 62 220/ 9/ 12 1004.1 ACE BASIN NERRS 0045 60 170/ 1 1008.0 FORT PULASKI 0136 61 59 220/ 7/ 11 1006.8R SAPELO ISLAND 0100 62 130/ 10 1008.0 $$ ANZ835-935-AMZ111-154-330-350-352-354-370-450-454-472-220300- ...C-MAN AND BUOY OBSERVATIONS... STATION/POSITION TIME TEMP WIND PRES WAVE SWELL AIR SEA DIR/SP/G HT/PER HT/PER/DIR (UTC) (F) (DEG/KT/KT) (MB) (FT/S) (FT/S/D) BUOY 41004 0050 64 68 250/ 8/ 10 1008.6 4/ 5 3/200/ 5 BUOY 41008 0050 62 62 190/ 8/ 10 1009.6 2/12 2/ 60/12 FOLLY BEACH CMAN 0100 59 200/ 12/ 14 1009.1R CAPERS NEARSHORE 0108 58 56 210/ 14/ 16 1007.9R FRIPP NEARSHORE 0108 60 59 150/ 17/ 21 1005.2F STATION/POSITION TIME TEMP WIND PRES WAVE SWELL AIR SEA DIR/SP/G HT/PER HT/PER/DIR (UTC) (F) (DEG/KT/KT) (MB) (FT/S) (FT/S/D) 5E ST. MARYS GA 0200 63 N/A 2/12 2/ 90/12 FRYING PAN BUOY 0150 69 70 240/ 21/ 27 1006.8F 3/11 2/110/11 BUOY 41025 0150 71 73 160/ 19/ 27 1007.6F 4/10 3/ 80/10 CAPE LOOKOUT NC 0100 61 40/ 7/ 8 1007.0F BUOY 41002 0150 72 71 180/ 12/ 14 1011.3F 5/10 3/ 50/10 BUOY 41010 NOT AVBL ST AUGUSTINE FL 0200 65 64 20/ 11/ 12 1010.9R $$

USA.gov is the U.S. government's official web portal to all federal, state and local government web resources and services.